Powrót do katalogu

COSMOS 970 DEB

AktywnyLEO
NORAD 10879·DEBRIS·🇷🇺 Russia

Wystrzelony Dec 21, 1977 z Baikonur Cosmodrome

Loading…

Następne Przeloty (najbliższe 24 godziny)

TLE

ŚwieżeSource: Space-Track

Epoka: Sep 14, 2026, 08:20 UTC

1 10879U 77121AA  26257.34766223  .00000229  00000-0  29954-3 0  9993
2 10879  65.8246 247.3780 0109423  95.9075 265.4473 13.77128544642873

Śledź COSMOS 970 DEB w czasie rzeczywistym z AllMySat

Download on the App Store